This is the latest recevied weather packets stored in our database for station/object HS3UAA-1. If no packets are shown the sender has not sent any weather packets the latest 10 day(s).
| Time | Temp. | Humidity | Pressure | Rain* | Wind** | Luminosity | Snow |
|---|---|---|---|---|---|---|---|
| 1788484486 | 28.89° C | 51% | 997 hPa | - | - | 0 W/m² | - |
| 1788484163 | 28.89° C | 50% | 997 hPa | - | - | 0 W/m² | - |
| 1788483841 | 28.89° C | 50% | 997 hPa | - | - | 0 W/m² | - |
| 1788483519 | 28.89° C | 51% | 997 hPa | - | - | 0 W/m² | - |
| 1788483197 | 29.44° C | 52% | 997 hPa | - | - | 0 W/m² | - |
| 1788482875 | 29.44° C | 51% | 997 hPa | - | - | 0 W/m² | - |
| 1788482553 | 29.44° C | 50% | 997 hPa | - | - | 0 W/m² | - |
| 1788482231 | 29.44° C | 48% | 997 hPa | - | - | 0 W/m² | - |
| 1788481909 | 29.44° C | 47% | 997 hPa | - | - | 0 W/m² | - |
| 1788481587 | 30° C | 48% | 997 hPa | - | - | 0 W/m² | - |
| 1788481265 | 30° C | 47% | 997 hPa | - | - | 0 W/m² | - |
| 1788480943 | 30° C | 44% | 997 hPa | - | - | 0 W/m² | - |
| 1788480621 | 30.56° C | 43% | 996 hPa | - | - | 0 W/m² | - |
| 1788480299 | 32.22° C | 45% | 996 hPa | - | - | 0 W/m² | - |
| 1788479977 | 32.78° C | 50% | 996 hPa | - | - | 0 W/m² | - |
| 1788479654 | 33.89° C | 47% | 996 hPa | - | - | 0 W/m² | - |
| 1788479332 | 34.44° C | 47% | 996 hPa | - | - | 0 W/m² | - |
| 1788479010 | 34.44° C | 47% | 996 hPa | - | - | 0 W/m² | - |
| 1788478688 | 34.44° C | 47% | 996 hPa | - | - | 0 W/m² | - |
| 1788478366 | 33.89° C | 48% | 996 hPa | - | - | 0 W/m² | - |
| 1788478044 | 33.33° C | 49% | 996 hPa | - | - | 0 W/m² | - |
| 1788477722 | 32.78° C | 50% | 996 hPa | - | - | 0 W/m² | - |
| 1788477400 | 33.33° C | 49% | 996 hPa | - | - | 0 W/m² | - |
| 1788477078 | 33.33° C | 49% | 996 hPa | - | - | 0 W/m² | - |
| 1788476756 | 33.89° C | 48% | 996 hPa | - | - | 0 W/m² | - |
* Rain since midnight (hover to see other rain measurements)
** Current wind speed in m/s (hover to see current wind gust speed)